FW1863 Weather Reports


Display with metric or nautical units.
time (UTC)temp
F
wind
direction
speed
MPH
gust
MPH
rain 1hr
in
rain 24hr
in
rain mn
in
humidity
%
barometer
mb
20260506165849 62 311 0.0 1.0 0.00 0.00 0.00 69 1020.9
20260506164350 62 230 1.0 4.0 0.00 0.00 0.00 70 1020.9
20260506162853 61 139 1.0 5.0 0.00 0.00 0.00 72 1021.0
20260506162849 62 140 0.0 0.0 0.00 0.00 0.00 70 1020.9
20260506155850 60 134 1.0 4.0 0.00 0.00 0.00 74 1021.0
20260506154349 60 56 0.0 6.0 0.00 0.00 0.00 73 1021.0
20260506153622 58 124 1.0 4.0 0.00 0.00 0.00 75 1021.1
20260506151352 57 82 0.0 3.0 0.00 0.00 0.00 78 1021.2
20260506145843 56 117 0.0 3.0 0.00 0.00 0.00 80 1021.1
20260506145114 55 94 0.0 1.0 0.00 0.00 0.00 84 1021.0
20260506143615 54 68 0.0 0.0 0.00 0.00 0.00 86 1021.0
20260506141339 53 58 0.0 0.0 0.00 0.00 0.00 85 1020.8
20260506135839 52 58 0.0 0.0 0.00 0.00 0.00 85 1020.6
20260506134335 52 58 0.0 0.0 0.00 0.00 0.00 85 1020.5
20260506132835 52 58 0.0 0.0 0.00 0.00 0.00 85 1020.6
20260506131335 52 58 0.0 0.0 0.00 0.00 0.00 85 1020.4
20260506125838 53 58 0.0 0.0 0.00 0.00 0.00 85 1020.2
20260506124333 53 58 0.0 0.0 0.00 0.00 0.00 85 1020.1
20260506122833 53 58 0.0 0.0 0.00 0.00 0.00 85 1020.2
20260506121333 53 58 0.0 0.0 0.00 0.00 0.00 85 1020.0
20260506115834 53 58 0.0 0.0 0.00 0.00 0.00 85 1020.0
20260506114332 52 58 0.0 0.0 0.00 0.00 0.00 85 1019.9
20260506112831 52 58 0.0 0.0 0.00 0.00 0.00 85 1019.8
20260506111329 52 58 0.0 0.0 0.00 0.00 0.00 85 1019.7
20260506105829 52 58 0.0 0.0 0.00 0.00 0.00 85 1019.5
20260506104330 52 58 0.0 0.0 0.00 0.01 0.00 85 1019.5
20260506102829 52 58 0.0 0.0 0.00 0.01 0.00 86 1019.4
20260506101324 51 58 0.0 0.0 0.00 0.01 0.00 86 1019.3
20260506100552 51 58 0.0 0.0 0.00 0.01 0.00 86 1019.4
20260506094318 51 58 0.0 0.0 0.00 0.01 0.00 85 1019.3
20260506092815 51 58 0.0 0.0 0.00 0.01 0.00 85 1019.3
20260506091309 51 58 0.0 0.0 0.00 0.01 0.00 85 1019.4
20260506085811 51 58 0.0 0.0 0.00 0.01 0.00 85 1019.3
20260506084302 50 58 0.0 0.0 0.00 0.02 0.00 85 1019.2
20260506082802 50 300 0.0 0.0 0.00 0.02 0.00 85 1019.3
20260506082032 50 300 0.0 0.0 0.00 0.04 0.00 84 1019.4
20260506073526 51 300 0.0 0.0 0.00 0.06 0.00 83 1019.1
20260506071246 52 300 0.0 0.0 0.00 0.06 0.00 82 1019.0
20260506070517 52 300 0.0 0.0 0.00 0.08 0.07 81 1018.9
20260506061234 54 277 0.0 0.0 0.00 0.09 0.07 79 1018.5
20260506051221 56 301 0.0 6.0 0.00 0.10 0.07 76 1018.2
20260506044213 56 298 1.0 4.0 0.00 0.10 0.07 75 1017.9
20260506042714 57 301 1.0 4.0 0.00 0.10 0.07 75 1017.7
20260506041941 57 294 0.0 3.0 0.00 0.10 0.07 75 1017.5
20260506035711 58 294 0.0 3.0 0.00 0.10 0.07 74 1017.4
20260506034211 58 249 1.0 4.0 0.00 0.10 0.07 73 1017.4
20260506032706 58 253 2.0 5.0 0.00 0.10 0.07 73 1017.1
20260506031207 58 237 0.0 5.0 0.00 0.10 0.07 72 1016.8
20260506025706 58 251 0.0 4.0 0.00 0.10 0.07 72 1016.8
20260506024208 59 223 1.0 7.0 0.00 0.10 0.07 71 1016.6
20260506022706 59 259 1.0 9.0 0.00 0.10 0.07 71 1016.6
20260506021206 60 240 1.0 5.0 0.00 0.10 0.07 71 1016.4
20260506015707 60 204 3.0 8.0 0.00 0.10 0.07 71 1016.3
20260506014207 61 242 4.0 10.0 0.00 0.10 0.07 69 1016.1
20260506012706 61 247 3.0 11.0 0.00 0.10 0.07 68 1016.1
20260506011938 62 223 3.0 8.0 0.00 0.10 0.07 69 1016.1
20260506005706 62 224 2.0 8.0 0.00 0.10 0.07 68 1016.1
20260506004204 62 209 1.0 7.0 0.00 0.10 0.07 69 1015.8
20260506002704 61 225 2.0 6.0 0.00 0.10 0.07 70 1015.8
20260506001202 61 255 2.0 7.0 0.00 0.10 0.07 71 1015.7
20260506000434 61 199 3.0 8.0 0.00 0.10 0.07 71 1015.8
20260505234202 61 217 2.0 9.0 0.00 0.10 0.07 71 1015.7
20260505232659 62 212 3.0 9.0 0.00 0.10 0.07 70 1015.8
20260505231155 61 235 1.0 5.0 0.00 0.10 0.07 69 1015.9
20260505225651 62 243 1.0 4.0 0.00 0.10 0.07 71 1015.9
20260505224152 61 181 0.0 2.0 0.00 0.10 0.07 71 1015.9
20260505222644 60 182 1.0 4.0 0.00 0.10 0.07 73 1015.9
20260505221144 60 128 1.0 4.0 0.00 0.10 0.07 73 1016.0
20260505215640 60 195 1.0 5.0 0.00 0.10 0.07 73 1016.1
20260505214138 60 131 1.0 4.0 0.00 0.10 0.07 74 1016.1
20260505212632 60 210 1.0 4.0 0.00 0.10 0.07 73 1016.3
20260505211134 60 237 1.0 5.0 0.00 0.10 0.07 74 1016.3
20260505205627 59 245 1.0 5.0 0.00 0.10 0.07 75 1016.3
20260505204125 59 228 2.0 5.0 0.00 0.10 0.07 74 1016.5
20260505203353 59 244 1.0 5.0 0.00 0.10 0.07 75 1016.5
20260505201119 59 200 3.0 9.0 0.00 0.10 0.07 75 1016.6
20260505195614 59 217 3.0 10.0 0.00 0.10 0.07 75 1016.6
20260505194116 59 311 1.0 8.0 0.00 0.10 0.07 73 1016.6
20260505192610 59 221 1.0 9.0 0.00 0.10 0.07 75 1016.5
20260505191110 59 315 1.0 4.0 0.00 0.10 0.07 75 1016.5
20260505185609 58 309 1.0 5.0 0.00 0.10 0.07 76 1016.4
20260505184109 58 307 1.0 8.0 0.00 0.10 0.07 77 1016.5
20260505182610 57 316 2.0 8.0 0.00 0.10 0.07 77 1016.5
20260505181110 57 305 1.0 7.0 0.00 0.10 0.07 77 1016.5
20260505175610 57 298 1.0 6.0 0.00 0.10 0.07 79 1016.4
20260505174110 56 315 1.0 8.0 0.00 0.10 0.07 81 1016.2
20260505172610 56 292 0.0 3.0 0.00 0.10 0.07 82 1016.0
20260505171840 56 246 0.0 4.0 0.00 0.10 0.07 84 1016.0